Back to catalog

STARLINK-1191

AliveCommunicationsVLEO
NORAD 45222·PAYLOAD·🇺🇸 United States

Launched Feb 17, 2020 from Cape Canaveral Space Force Station

Loading…

Next Passes (next 24 hours)

TLE

FreshSource: CelesTrak SupGP

Epoch: Sep 14, 2026, 21:04 UTC

1 45222C 20012AW  26257.87826389  .00040981  00000+0  65800-3 0  2573
2 45222  53.1502 187.0491 0001821 134.2659 242.3684 15.52406926    15

Track STARLINK-1191 in real time with AllMySat

Download on the App Store